SL-8 R/B

Satellite information

Favourite Embed

Satellite Type and Status

ROCKET BODYIN ORBIT

Key statistics

Satellite SL-8 R/B at a glance.

Uptime

16238

Days in orbit

Revolutions

≈ 14.4

Per day

Orbit

LEO

Low Earth Orbit

Inclination

74.1

Latest

Satellite identification and parameters

Extended collection of information and parameters for SL-8 R/B.

Object identification

Identified? True

Debris? False

Object name: SL-8 R/B

International designator: 1981-041B

Object number (NORAD): 12443

Object ID (CCSDS): 12443

Country: COMMONWEALTH OF INDEPENDENT STATES (CIS)

Current information (Y/N): Y

RCS size: LARGE

Orbital parameters

Period: 100.283 minutes

Inclination: 74.0555 deg

SMA: 7150.091 km

Apoapsis: 774.401 km

Periapsis: 769.511 km

RAAN: 348.3135 deg

Eccentricy: 0.00034195

Argument of periapsis: 41.1054 deg

Mean anomaly: 319.0356 deg

Mean motion: 14.35937081 rev/day

Mean motion (dot): 0.00000404 rev/day2

B* drag term: 0.00014828358 1/REarth

Two-line elements (TLE)

Creation date: Oct. 20, 2025, 6:08 p.m.

Reference frame: TEME

Reference center: EARTH

Epoch: Oct. 20, 2025, 2:09 p.m. UTC

TLE line 0: 0 SL-8 R/B

TLE line 1: 1 12443U 81041B 25293.58978173 .00000404 00000-0 14828-3 0 9991

TLE line 2: 2 12443 74.0555 348.3135 0003420 41.1054 319.0356 14.35937081324853

Live tracking on map

Real-time ground track for satellite SL-8 R/B.

In-orbit conjunctions

A list of the most updated potential collisions computed for object SL-8 R/B.

Target Orbit TCA Probability of collision Miss distance Type
DMSP 5D-2 F13 DEB SSO 2025-09-21 12:29:55 0.0001597117 192.0 (m) DEBRIS
COSMOS 1275 DEB LEO 2025-06-17 09:50:02 0.0002550337 503.0 (m) DEBRIS
DELTA 1 DEB SSO 2025-02-22 04:06:08 0.0001187254 146.0 (m) DEBRIS
FENGYUN 1C DEB SSO 2024-10-31 12:28:47 0.0001862149 657.0 (m) DEBRIS
CZ-6A DEB SSO 2024-08-06 05:56:11 0.0001169232 270.0 (m) DEBRIS

Associated space launch

Military communications satellite

SL-8 R/B was lifted into orbit during the mission ‘Kosmos-3M | Strela-2M 24’, on board a Kosmos-3M space rocket.

The launch took place on May 7, 1981, 1:21 p.m. from 132/1 (132L).

For more information about the launch, click the button.

Launch to space Kosmos-3M | Strela-2M 24
Kosmos-3M | Strela-2M 24

Agency: N/A

Status: Launch Successful

Launch date: May 7, 1981, 1:21 p.m. UTC

Rocket: Kosmos-3M

Launch pad: 132/1 (132L)

Location: Plesetsk Cosmodrome, Russian Federation

...

Latest news about this satellite

There are no fresh news available about this satellite. Check back as we update our databases every day.


Newsletter sign-up

Weekly statistics, charts and insights to help you stay on top of the space industry.